This demonstration page uses our WeatherBlox Daily Observations layout. Learn more.

Left ArrowRight Arrow

Hourly Observations for April 13, 2018

Temp ( °F °C ) Dew Point ( °F °C ) Humidity (%) Winds ( mph kmh ) Pressure ( in mb ) Visibility ( mi km ) Precip ( " mm )
12:59 am 00:59 Clear 60 15.6 42 5.6 52 52 SSW 14 22 30.09 1019 10 16 0.00 0.00
1:59 am 01:59 Clear 59 15 42 5.6 54 54 SSW 16 26 30.08 1019 10 16 0.00 0.00
2:59 am 02:59 Clear 59 15 42 5.6 54 54 SSW 14 22 30.07 1018 10 16 0.00 0.00
3:59 am 03:59 Clear 59 15 45 7.2 60 60 SSW 14 22 30.06 1018 10 16 0.00 0.00
4:59 am 04:59 Clear 59 15 47 8.3 64 64 SW 13 20 30.07 1018 10 16 0.00 0.00
5:59 am 05:59 Mostly Clear 59 15 48 8.9 67 67 SW 12 19 30.10 1019 10 16 0.00 0.00
6:59 am 06:59 Mostly Sunny 58 14.4 48 8.9 70 70 SW 13 20 30.11 1020 10 16 0.00 0.00
7:59 am 07:59 Mostly Sunny 61 16.1 50 10 67 67 SSW 16 26 30.13 1020 10 16 0.00 0.00
8:59 am 08:59 Partly Cloudy 64 17.8 52 11.1 65 65 SW 16 26 30.14 1021 10 16 0.00 0.00
9:59 am 09:59 Partly Cloudy 68 20 52 11.1 57 57 WSW 15 24 30.14 1021 10 16 0.00 0.00
10:59 am 10:59 Partly Cloudy 72 22.2 53 11.7 52 52 SW 16 26 30.14 1021 10 16 0.00 0.00
11:59 am 11:59 Partly Cloudy 75 23.9 51 10.6 43 43 SW 17 28 30.12 1020 10 16 0.00 0.00
12:59 pm 12:59 Mostly Sunny 77 25 51 10.6 40 40 SW 18 30 30.09 1019 10 16 0.00 0.00
1:59 pm 13:59 Mostly Sunny 79 26.1 50 10 36 36 SW 17 28 30.06 1018 10 16 0.00 0.00
2:59 pm 14:59 Partly Cloudy 80 26.7 50 10 35 35 SW 18 30 30.04 1017 10 16 0.00 0.00
3:59 pm 15:59 Mostly Cloudy 80 26.7 50 10 35 35 SW 17 28 30.01 1016 10 16 0.00 0.00
4:59 pm 16:59 Partly Cloudy 80 26.7 51 10.6 37 37 SSW 16 26 30.01 1016 10 16 0.00 0.00
5:59 pm 17:59 Partly Cloudy 79 26.1 51 10.6 38 38 SSW 10 17 30.01 1016 10 16 0.00 0.00
6:59 pm 18:59 Mostly Sunny 78 25.6 51 10.6 39 39 SSW 13 20 30.02 1017 10 16 0.00 0.00
7:59 pm 19:59 Partly Cloudy 76 24.4 52 11.1 43 43 SW 12 19 30.04 1017 10 16 0.00 0.00
8:59 pm 20:59 Clear 73 22.8 57 13.9 57 57 SSW 10 17 30.05 1018 10 16 0.00 0.00
9:59 pm 21:59 Clear 70 21.1 57 13.9 64 64 SSW 12 19 30.07 1018 10 16 0.00 0.00
10:59 pm 22:59 Clear 68 20 56 13.3 65 65 S 13 20 30.08 1019 10 16 0.00 0.00
11:59 pm 23:59 Clear 67 19.4 56 13.3 68 68 SSW 14 22 30.08 1019 10 16 0.00 0.00

Powered by AerisWeather